Starlink 30755

operational
NORAD ID: 58186 Int'l Des: 2023-167 Owner: SPXS Country: US Constellation: starlink
LEOCIRCULAR

关于 Starlink 30755

正在加载描述...

实时位置

正在加载3D地球...

即将过境

高度历史

Altitude vs Time

uPlot chart will show altitude changes over time

两行轨道根数

1 58186U 23167M 25349.73112350 .00002327 00000-0 18720-3 0 9997
2 58186 43.0019 242.3178 0001448 264.2580 95.8097 15.02552001118322
Epoch: Dec 15, 2025 • Age: 13 hours

当前状态

高度 568.3 km
速度 7.58 km/s
星下点 -35.31°S, 14.45°E
发射日期 Oct 30, 2023
运行时间 2.1 years
类型 internet

技术详情

分类 Payload
质量 730.00 kg
干质量 700.00 kg
总质量 730.00 kg
长度 0.30 m
直径 4.10 m
跨度 29.00 m
形状 Box + pan
制造商 SPXS
平台类型 Starlink V2M
阶段状态 In Orbit
所有者/国家 SPXS/US

大型星座

Loading constellations...